Location: Marcé
(47.5801°N, 0.3280°W)
Time: 02:19:32
(UTC+01:00)

deb Explorer IX - Visible Passes

Search period start: 04 December 2023 00:00
Search period end: 14 December 2023 00:00
Orbit: 523 x 935 km, 38.8° (Epoch: 03 December)

Date Brightness Start Highest point End Pass type
(mag) Time Alt. Az. Time Alt. Az. Time Alt. Az.
11 Dec ? 19:50:17 10° SSW 19:51:21 14° S 19:51:21 14° S visible
12 Dec ? 18:58:54 10° S 19:00:53 13° SSE 19:01:53 12° SE visible
13 Dec ? 18:08:07 10° SSE 18:08:54 10° SSE 18:09:41 10° SE visible
13 Dec ? 19:49:36 10° SW 19:51:39 19° SSW 19:51:39 19° SSW visible
